Regional Weather Roundup
Issued by NWS

Home | Current Version | Previous Version | Graphics & Text | Print | Product List | Glossary On
Versions: 1 2 3 4 5 6 7 8 9 10 11 12 13 14 15 16 17 18 19 20 21 22 23 24 25 26 27 28 29 30 31 32 33 34 35 36 37 38 39 40 41 42 43 44 45 46 47 48 49 50
000
ASUS43 KLMK 011010
RWRKY
KENTUCKY REGIONAL WEATHER ROUNDUP
NATIONAL WEATHER SERVICE LOUISVILLE KY
600 AM EDT WED OCT 01 2014

NOTE "FAIR" INDICATES FEW OR NO CLOUDS BELOW 12,000 FEET
WITH NO SIGNIFICANT WEATHER AND/OR OBSTRUCTIONS TO VISIBILITY.

KYZ001>023-026-027-061>063-070>075-011100-
WESTERN AND SOUTH CENTRAL KENTUCKY

CITY           SKY/WX    TMP DP  RH WIND       PRES   REMARKS
PADUCAH        CLEAR     56  54  93 CALM      29.91R
HENDERSON      NOT AVBL
OWENSBORO      CLEAR     63  60  90 CALM      29.94R
HOPKINSVILLE   CLEAR     59  55  87 NE1       29.93R
BOWLING GREEN  CLEAR     57  55  93 CALM      29.94S FOG
GLASGOW        PTCLDY    56  56 100 CALM      29.95S
$$

KYZ024-025-028>034-038-045-046-053-011100-
NORTH CENTRAL KENTUCKY

CITY           SKY/WX    TMP DP  RH WIND       PRES   REMARKS
LOUISVILLE/SDF PTCLDY    59  55  87 NE6       29.96S
LOUISVILLE/LOU CLEAR     58  54  86 NE3       29.97S
FORT KNOX      MOCLDY    59  57  92 NE8       29.95S
$$

KYZ035>037-039>044-047>052-055>060-089>105-011100-
NORTHEAST KENTUCKY

CITY           SKY/WX    TMP DP  RH WIND       PRES   REMARKS
LEXINGTON      CLEAR     56  52  86 NE3       29.97S
COVINGTON      CLEAR     53  48  83 NE5       29.98S
FRANKFORT      CLEAR     55  52  89 NE3       29.96F
$$

KYZ054-064>069-076>088-106>120-011100-
SOUTHEAST KENTUCKY

CITY           SKY/WX    TMP DP  RH WIND       PRES   REMARKS
JACKSON        FOG       58  57  97 CALM      29.97S VSB 1/4
LONDON         CLEAR     54  51  90 CALM      29.98R
SOMERSET       CLEAR     54  54 100 CALM      29.98R
MIDDLESBORO    FOG       53  53 100 CALM      30.00S VSB 1/2
MONTICELLO     MOSUNNY   53  52  97 CALM      29.98S FOG
$$




USA.gov is the U.S. government's official web portal to all federal, state and local government web resources and services.